Home   Weather   Cape Coral   Past weeks
Flag for USA

Past Weather in Cape Coral, Florida, USA — Yesterday and Last 2 Weeks

Now
83 °F

Partly cloudy.


Feels Like: 90 °F
Forecast: 89 / 76 °F
Wind: 5 mph from Southeast

Location: Page Field

Current Time: Jul 15, 2019 at 10:59:01 pm

Latest Report: Jul 15, 2019 at 9:53 pm


Visibility: 10 mi

Pressure: 30.08 "Hg

Humidity: 77%

Dew Point: 75 °F

Location of Cape CoralLocation

Past Weather in Cape Coral — Graph

°F

Cape Coral Temperature Yesterday

Maximum temperature yesterday: 95 °F (at 5:10 pm)
Minimum temperature yesterday: 76 °F (at 5:53 am)
Average temperature yesterday: 85 °F

High & Low Weather Summary for the Past Weeks

 TemperatureHumidityPressure
High95 °F (Jul 14, 5:10 pm)97% (Jul 4, 6:53 am)30.14 "Hg (Jul 4, 6:53 am)
Low73 °F (Jul 11, 9:38 pm)47% (Jul 14, 5:10 pm)29.91 "Hg (Jul 3, 4:34 pm)
Average82 °F78%30.02 "Hg
* Reported Jun 30 9:53 pm — Jul 15 9:53 pm, Cape Coral. Weather by CustomWeather, © 2019

Note: Actual official high and low records may vary slightly from our data, if they occured in-between our weather recording intervals... More about our weather records

Advertising

Cape Coral Weather History for the Previous 24 Hours

Scroll right to see more
 ConditionsComfort  
Time TempWeatherWind HumidityBarometerVisibility
9:53 pm
Mon, Jul 15
83 °FPartly cloudy.5 mph77%30.08 "Hg10 mi
8:53 pm84 °FPassing clouds.5 mph72%30.06 "Hg10 mi
7:53 pm88 °FPartly sunny.No wind67%30.04 "Hg10 mi
6:53 pm91 °FSunny.5 mph52%30.03 "Hg10 mi
5:53 pm94 °FSunny.9 mph48%30.02 "Hg10 mi
4:53 pm91 °FPartly sunny.7 mph52%30.03 "Hg10 mi
3:55 pm91 °FPartly sunny.7 mph52%30.04 "Hg10 mi
2:53 pm92 °FScattered clouds.7 mph51%30.06 "Hg10 mi
1:53 pm92 °FBroken clouds.8 mph52%30.08 "Hg10 mi
12:53 pm91 °FBroken clouds.8 mph56%30.09 "Hg10 mi
11:53 am89 °FPassing clouds.8 mph59%30.10 "Hg10 mi
10:53 am87 °FPassing clouds.10 mph65%30.10 "Hg10 mi
9:53 am85 °FPassing clouds.9 mph72%30.09 "Hg10 mi
8:53 am82 °FSunny.7 mph82%30.09 "Hg10 mi
7:53 am79 °FSunny.6 mph88%30.09 "Hg10 mi
6:53 am77 °FSunny.3 mph94%30.07 "Hg10 mi
5:53 am77 °FClear.3 mph90%30.06 "Hg10 mi
4:53 am78 °FClear.No wind87%30.06 "Hg10 mi
3:53 am78 °FClear.5 mph87%30.06 "Hg10 mi
2:53 am78 °FClear.3 mph84%30.07 "Hg10 mi
1:53 am79 °FClear.6 mph82%30.09 "Hg10 mi
12:53 am80 °FClear.6 mph79%30.11 "Hg10 mi
11:53 pm
Sun, Jul 14
82 °FClear.9 mph72%30.11 "Hg10 mi
10:53 pm83 °FClear.8 mph70%30.11 "Hg10 mi
Weather by CustomWeather, © 2019

See weather overview

LIVE PARTIAL LUNAR ECLIPSE – Watch the eclipse as it happens